カタログに戻る

STARLINK-30147

運用中通信VLEO
NORAD 57511·PAYLOAD·🇺🇸 United States

打ち上げ Aug 7, 2023 から Cape Canaveral Space Force Station

Loading…

次のパス (今後24時間)

TLE

最新Source: CelesTrak SupGP

元期: Sep 15, 2026, 03:17 UTC

1 57511C 23113S   26258.13729167 -.00052317  00000+0 -18950-2 0  2580
2 57511  43.0048  25.9526 0002120 262.4686  13.5347 15.27602701    13

AllMySatでSTARLINK-30147をリアルタイム追跡

Download on the App Store